Location: Piedmont
(45.8748°N, 74.1254°W)
Time: 13:25:27
(UTC+00:00)

N. Korean satellite - Pass Details

Date: 03 December 2021
Orbit: 446 x 491 km, 97.3° (Epoch: 18 January)

Event Time Altitude Azimuth Distance (km) Brightness Sun altitude
Rises 09:55:19 0° 18° (NNE) 2,470 10.3 -24.4°
Reaches altitude 10° 09:57:25 10° 25° (NNE) 1,588 9.3 -24.0°
Maximum altitude 10:00:42 45° 99° (E) 626 7.5 -23.5°
Drops below altitude 10° 10:03:56 10° 173° (S) 1,568 9.3 -22.9°
Sets 10:06:00 0° 180° (S) 2,435 10.2 -22.6°
